Weather History for Jordan, MT

Change the Weather History Date:

Tuesday, October 8, 2013

  Actual Average Record
Temperature  
Mean Temperature 49 °F 48 °F  
Max Temperature 65 °F 62 °F 88 °F (1943)
Min Temperature 32 °F 33 °F 18 °F (1945)
Degree Days  
Heating Degree Days 16 18  
Month to date heating degree days 149 130  
Since 1 July heating degree days 310 456  
Cooling Degree Days 0 0  
Month to date cooling degree days 0 0  
Year to date cooling degree days 520 420  
Growing Degree Days 0 (Base 50)    
Moisture  
Dew Point 27 °F    
Average Humidity 52    
Maximum Humidity 82    
Minimum Humidity 22    
Precipitation  
Precipitation 0.00 in 0.03 in 1.15 in (1975)
Month to date precipitation 0.02 0.23  
Year to date precipitation 15.48 11.36  
Snow  
Snow 0.00 in - - ()
Month to date snowfall 0.0  
Since 1 July snowfall 0.0  
Since 1 September snowfall 0.0  
Snow Depth 0.00 in    
Sea Level Pressure  
Sea Level Pressure 29.78 in    
Wind  
Wind Speed 7 mph (WNW)    
Max Wind Speed 21 mph    
Max Gust Speed 28 mph    
T = Trace of Precipitation, MM = Missing Value Source: NWS Daily Summary

Daily Weather History Graph

Daily Weather History Graph

Search for Another Location

Airport:

Trip Planner

Search our weather history database for the weather conditions in past years. The results will help you decide how hot, cold, wet, or windy it might be!

Date:

Astronomy

Oct. 08, 2013 Rise Set
Actual Time 7:16 AM MDT 6:32 PM MDT
Civil Twilight 6:46 AM MDT 7:03 PM MDT
Nautical Twilight 6:10 AM MDT 7:38 PM MDT
Astronomical Twilight 5:34 AM MDT 8:14 PM MDT
Moon 11:29 AM MDT (10/8) 8:56 PM MDT (10/8)
Length of Visible Light 12h 17m
Length of Day
11h 16m
Waxing Crescent, 16% of the Moon is Illuminated
Oct 8
Waxing Crescent
Oct 11
First Quarter
Oct 18
Full
Oct 26
Last Quarter
Nov 3
New

Hourly Weather History & Observations

Time (MDT) Temp. Windchill Dew Point Humidity Pressure Visibility Wind Dir Wind Speed Gust Speed Precip Events Conditions
12:48 AM 50.0 °F - 30.0 °F 46% 29.64 in - Calm Calm - N/A   Unknown
1:48 AM 46.0 °F 43.1 °F 28.9 °F 51% 29.67 in - WNW 5.8 mph - N/A   Unknown
2:48 AM 44.1 °F - 28.9 °F 55% 29.68 in - Calm Calm - N/A   Unknown
3:48 AM 41.0 °F 37.1 °F 28.0 °F 60% 29.69 in - WNW 5.8 mph - N/A   Unknown
4:48 AM 42.1 °F 39.2 °F 28.9 °F 60% 29.71 in - WNW 4.6 mph - N/A   Unknown
5:48 AM 42.1 °F 37.1 °F 28.9 °F 60% 29.71 in - WNW 8.1 mph - N/A   Unknown
6:48 AM 37.0 °F 34.5 °F 28.9 °F 73% 29.76 in - WNW 3.5 mph - N/A   Unknown
7:48 AM 34.0 °F 29.8 °F 28.0 °F 79% 29.77 in - WNW 4.6 mph - N/A   Unknown
8:48 AM 46.0 °F 42.5 °F 30.9 °F 56% 29.77 in - West 6.9 mph - N/A   Unknown
9:48 AM 55.9 °F - 30.0 °F 37% 29.78 in - WNW 8.1 mph - N/A   Unknown
10:48 AM 60.1 °F - 28.0 °F 30% 29.77 in - WNW 20.7 mph 27.6 mph N/A   Unknown
11:48 AM 59.0 °F - 26.1 °F 28% 29.77 in - WNW 16.1 mph 23.0 mph N/A   Unknown
12:48 PM 62.1 °F - 25.0 °F 24% 29.75 in - NW 13.8 mph 21.9 mph N/A   Unknown
1:48 PM 64.0 °F - 26.1 °F 24% 29.74 in - WSW 8.1 mph 18.4 mph N/A   Unknown
2:48 PM 64.0 °F - 25.0 °F 23% 29.74 in - West 15.0 mph 21.9 mph N/A   Unknown
3:48 PM 64.0 °F - 26.1 °F 24% 29.75 in - WNW 12.7 mph - N/A   Unknown
4:48 PM 62.1 °F - 25.0 °F 24% 29.78 in - WNW 11.5 mph - N/A   Unknown
5:48 PM 60.1 °F - 24.1 °F 25% 29.81 in - WNW 12.7 mph - N/A   Unknown
6:48 PM 57.0 °F - 25.0 °F 29% 29.86 in - WNW 6.9 mph - N/A   Unknown
7:48 PM 48.9 °F - 26.1 °F 41% 29.90 in - Calm Calm - N/A   Unknown
8:48 PM 46.9 °F - 26.1 °F 44% 29.91 in - WNW 4.6 mph - N/A   Unknown
9:48 PM 41.0 °F - 26.1 °F 55% 29.93 in - Calm Calm - N/A   Unknown
10:48 PM 39.0 °F - 27.0 °F 62% 29.94 in - Calm Calm - N/A   Unknown
11:48 PM 35.1 °F 31.0 °F 26.1 °F 70% 29.97 in - NW 4.6 mph - N/A   Unknown